TimeCDT,TemperatureF,Dew PointF,Humidity,Sea Level PressureIn,VisibilityMPH,Wind Direction,Wind SpeedMPH,Gust SpeedMPH,PrecipitationIn,Events,Conditions,WindDirDegrees,DateUTC
12:52 AM,48.9,39.9,71,29.89,10.0,West,8.1,-,N/A,,Overcast,280,2012-10-09 05:52:00
1:52 AM,48.0,39.0,71,29.88,10.0,NW,9.2,-,N/A,,Overcast,310,2012-10-09 06:52:00
2:52 AM,46.4,39.2,76,29.91,10.0,NNW,12.7,-,N/A,,Overcast,330,2012-10-09 07:52:00
3:52 AM,45.0,39.9,82,29.90,10.0,NNW,11.5,-,0.00,Rain,Light Rain,330,2012-10-09 08:52:00
4:52 AM,44.1,39.0,82,29.93,10.0,NNW,15.0,-,0.00,,Overcast,330,2012-10-09 09:52:00
5:52 AM,42.8,37.4,81,29.96,10.0,NNW,16.1,28.8,N/A,,Overcast,340,2012-10-09 10:52:00
6:33 AM,42.8,37.4,81,29.97,10.0,North,16.1,24.2,0.00,Rain,Light Rain,350,2012-10-09 11:33:00
6:52 AM,41.0,34.0,76,30.01,10.0,North,24.2,31.1,0.00,,Overcast,350,2012-10-09 11:52:00
7:52 AM,39.0,32.0,76,30.04,10.0,NW,6.9,-,N/A,,Overcast,320,2012-10-09 12:52:00
8:52 AM,39.9,32.0,73,30.06,10.0,NW,5.8,-,N/A,,Overcast,310,2012-10-09 13:52:00
9:52 AM,43.0,28.0,56,30.07,10.0,NW,10.4,19.6,N/A,,Overcast,310,2012-10-09 14:52:00
10:52 AM,46.0,28.0,50,30.08,10.0,NNW,13.8,-,N/A,,Mostly Cloudy,330,2012-10-09 15:52:00
11:52 AM,48.0,28.0,46,30.08,10.0,NW,16.1,27.6,N/A,,Partly Cloudy,320,2012-10-09 16:52:00
12:52 PM,50.0,28.0,43,30.08,10.0,NW,19.6,28.8,N/A,,Mostly Cloudy,320,2012-10-09 17:52:00
1:52 PM,48.9,27.0,43,30.08,10.0,WNW,20.7,29.9,N/A,,Partly Cloudy,300,2012-10-09 18:52:00
2:52 PM,50.0,25.0,38,30.07,10.0,NNW,19.6,29.9,N/A,,Mostly Cloudy,330,2012-10-09 19:52:00
3:52 PM,52.0,26.1,37,30.07,10.0,NW,21.9,31.1,N/A,,Scattered Clouds,320,2012-10-09 20:52:00
4:52 PM,48.9,26.1,41,30.10,10.0,NW,24.2,32.2,N/A,,Clear,320,2012-10-09 21:52:00
5:52 PM,48.0,24.1,39,30.12,10.0,NW,19.6,28.8,N/A,,Partly Cloudy,310,2012-10-09 22:52:00
6:52 PM,44.1,24.1,45,30.14,10.0,NW,9.2,-,N/A,,Clear,310,2012-10-09 23:52:00
7:52 PM,37.9,23.0,55,30.17,10.0,West,8.1,-,N/A,,Partly Cloudy,270,2012-10-10 00:52:00
8:52 PM,34.0,21.9,61,30.19,10.0,WNW,8.1,-,N/A,,Clear,290,2012-10-10 01:52:00
9:52 PM,32.0,21.9,66,30.20,10.0,West,6.9,-,N/A,,Clear,280,2012-10-10 02:52:00
10:52 PM,30.0,21.0,69,30.22,10.0,WNW,6.9,-,N/A,,Clear,290,2012-10-10 03:52:00
11:52 PM,27.0,21.0,78,30.21,10.0,West,5.8,-,N/A,,Clear,260,2012-10-10 04:52:00